Miscellaneous Local Product
Issued by NWS Hastings, NE

Home | Current Version | Previous Version | Text Only | Print | Product List | Glossary On
Versions: 1 2 3 4 5 6 7 8 9 10 11 12 13 14 15 16 17 18 19 20 21 22 23 24 25 26 27 28 29 30 31 32 33 34 35 36 37 38 39 40 41 42 43 44 45 46 47 48 49 50
780
AXUS43 KGID 240602
MISGRI

GID CWA HOURLY WEATHER ROUNDUP
NATIONAL WEATHER SERVICE HASTINGS NE
100 AM CDT SUN SEP 24 2017

NOTE: "FAIR" INDICATES FEW OR NO CLOUDS BELOW 12,000 FEET WITH NO
SIGNIFICANT WEATHER AND/OR OBSTRUCTIONS TO VISIBILITY.

...SOUTH CENTRAL NEBRASKA...

CITY           SKY/WX    TMP DP  RH WIND       PRES   REMARKS
GRAND ISLAND   PTCLDY    59  58  96 CALM      29.88S
HASTINGS       PTCLDY    74  60  61 S10       29.88S
KEARNEY        MOCLDY    62  59  90 NW3       29.89R
ORD            MOCLDY    57  55  93 NW3       29.88S
YORK           PTCLDY    73  63  68 S10       29.89R
AURORA         PTCLDY    70  61  73 S9        29.88S
LEXINGTON      HVY RAIN  58  56  93 NE3       29.90S
HOLDREGE       CLOUDY    60  59  94 N5        29.89F
HEBRON         CLEAR     75  62  62 S9        29.89R

...NEBRASKA PANHANDLE...

CITY           SKY/WX    TMP DP  RH WIND       PRES   REMARKS
CHADRON        LGT RAIN  46  44  93 N6        29.99R
ALLIANCE       LGT RAIN  45  43  93 N8        29.97R
SCOTTSBLUFF    LGT RAIN  46  43  89 E5        29.97F
SIDNEY         LGT RAIN  45  43  93 N10       29.96F

...WESTERN AND NORTH CENTRAL NEBRASKA...

CITY           SKY/WX    TMP DP  RH WIND       PRES   REMARKS
VALENTINE      RAIN      51  49  92 NW5       29.94F
AINSWORTH      HVY RAIN  50  50 100 N7        29.92F
ONEILL         FOG       55  55 100 SW8       29.93R VSB 1/2
BROKEN BOW     LGT RAIN  55  54  96 N9        29.90F
IMPERIAL       LGT RAIN  52  49  89 N14       29.91R
NORTH PLATTE   LGT RAIN  53  53 100 E8        29.88F
MCCOOK         LGT RAIN  58  58 100 E9        29.86F

...EASTERN NEBRASKA...

CITY           SKY/WX    TMP DP  RH WIND       PRES   REMARKS
NORFOLK        PTCLDY    57  57 100 CALM      29.88F
SO SIOUX CITY  PTCLDY    63  61  93 NW3       29.89S
TEKAMAH        MOCLDY    68  64  87 SE5       29.89S
COLUMBUS       PTCLDY    75  63  66 SE10      29.88S
ALBION         PTCLDY    57  56  95 CALM      29.88F
OMAHA EPPLEY   MOCLDY    76  65  68 S12       29.91R
OFFUTT AFB     PTCLDY    71  65  82 SE8       29.91R
MILLARD        CLOUDY    78  67  70 SE8       29.91R
LINCOLN        MOCLDY    76  63  64 S12       29.89S
NEBRASKA CITY  PTCLDY    73  68  85 S8        29.93S
BEATRICE       CLEAR     76  64  65 SE12      29.90F
FALLS CITY     CLEAR     71  66  84 SE7       29.92S

...NORTHERN KANSAS...

CITY           SKY/WX    TMP DP  RH WIND       PRES   REMARKS
GOODLAND       LGT RAIN  61  61 100 SE7       29.86F
HILL CITY      CLOUDY    65  64  97 NW5       29.88F
NORTON         MOCLDY    61  55  82 N3        29.86F
PHILLIPSBURG   CLOUDY    77  59  53 S8        29.86S
SMITH CENTER   PTCLDY    72  61  68 SE10      29.88S
HAYS           MOCLDY    73  61  65 SE10      29.87S
RUSSELL        CLEAR     74  62  66 S16       29.86S
CONCORDIA      CLEAR     74  63  68 S16       29.88S
SALINA         CLEAR     78  63  59 SE13      29.88F
TOPEKA         CLEAR     69  66  90 CALM      29.93R



USA.gov is the U.S. government's official web portal to all federal, state and local government web resources and services.